Flag for Brunei Weather past 2 weeks in Bandar Seri Begawan, Brunei

Now
79 °F

Passing clouds.


Feels Like: 82 °F
Forecast: 78 / 88 °F
Wind: 5 mph from Southeast

Location: Brunei Airport

Current Time: Oct 1, 2014 at 7:56:46 PM

Latest Report: Oct 1, 2014 at 7:30 PM


Visibility: N/A

Pressure: 29.83 "Hg

Humidity: 84%

Dew point: 73 °F

Location of Bandar Seri BegawanLocation

Historic Weather in Bandar Seri Begawan — Graph

°F

Bandar Seri Begawan temperature yesterday

Maximum temperature yesterday: 90 °F (at 1:30 PM)
Minimum temperature yesterday: 77 °F (at 1:30 AM)
Average temperature yesterday: 82 °F

Past Weeks' High & Low Weather Summary

 TemperatureHumidityPressure
High93 °F (Sep 17, 3:30 PM)100% (Sep 17, 6:00 AM)29.95 "Hg (Sep 17, 6:00 AM)
Low73 °F (Sep 26, 6:00 AM)49% (Sep 17, 3:30 PM)29.25 "Hg (Sep 19, 7:30 PM)
Average83 °F82%29.84 "Hg
* Reported Sep 16 6:00 PM — Oct 1 6:30 PM, Bandar Seri Begawan, Weather by CustomWeather, © 2014

Note: Actual official high and low records may vary slightly from our data, if they occured in-between our weather recording intervals... More about our weather records

Advertising

Bandar Seri Begawan weather history for previous 24 hours

 ConditionsComfort  
Time TempWeatherWind HumidityBarometerVisibility
6:30 PM
Oct 1
81 °FPassing clouds.5 mph84%29.83 "HgN/A
6:00 PM81 °FPartly sunny.7 mph84%29.83 "HgN/A
5:30 PM81 °FBroken clouds.7 mph84%29.80 "HgN/A
5:00 PM81 °FPartly sunny.5 mph89%29.80 "HgN/A
4:30 PM81 °FBroken clouds.9 mph84%29.80 "HgN/A
4:00 PM82 °FBroken clouds.14 mph79%29.80 "HgN/A
3:30 PM86 °FPartly sunny.5 mph75%29.77 "HgN/A
3:00 PM84 °FThunderstorms. Partly sunny.5 mph74%29.77 "HgN/A
2:30 PM84 °FThunderstorms. Scattered clouds.6 mph74%29.80 "HgN/A
2:00 PM88 °FThunderstorms. Partly sunny.6 mph66%29.80 "Hg6 mi
1:30 PM88 °FThunderstorms. Partly sunny.12 mph66%29.80 "Hg6 mi
1:00 PM90 °FBroken clouds.13 mph63%29.83 "HgN/A
12:30 PM90 °FBroken clouds.9 mph67%29.83 "HgN/A
12:00 PM90 °FBroken clouds.8 mph63%29.83 "HgN/A
11:30 AM90 °FPartly sunny.9 mph59%29.86 "HgN/A
11:00 AM88 °FPartly sunny.7 mph62%29.86 "HgN/A
10:30 AM88 °FPartly sunny.8 mph62%29.89 "HgN/A
10:00 AM88 °FPartly sunny.9 mph62%29.89 "HgN/A
9:30 AM86 °FPartly sunny.9 mph66%29.89 "HgN/A
9:00 AM84 °FPartly sunny.6 mph70%29.89 "HgN/A
8:30 AM82 °FPartly sunny.6 mph79%29.89 "HgN/A
8:00 AM81 °FPartly sunny.3 mph84%29.86 "Hg6 mi
7:30 AM79 °FBroken clouds.3 mph89%29.86 "Hg6 mi
7:00 AM77 °FBroken clouds.3 mph94%29.83 "Hg6 mi
6:30 AM75 °FPartly sunny.2 mph94%29.83 "Hg6 mi
6:00 AM75 °FPassing clouds.5 mph94%29.83 "Hg6 mi
5:30 AM77 °FPartly cloudy.6 mph89%29.83 "Hg6 mi
5:00 AM77 °FPassing clouds.3 mph94%29.83 "Hg6 mi
4:30 AM77 °FPassing clouds.5 mph94%29.83 "Hg6 mi
4:00 AM77 °FPassing clouds.3 mph94%29.83 "Hg6 mi
3:30 AM77 °FPassing clouds.3 mph94%29.83 "Hg6 mi
3:00 AM77 °FPassing clouds.2 mph94%29.83 "Hg6 mi
2:30 AM77 °FPassing clouds.1 mph94%29.83 "Hg6 mi
2:00 AM77 °FPassing clouds.2 mph94%29.83 "Hg6 mi
1:30 AM77 °FPassing clouds.5 mph94%29.83 "Hg6 mi
1:00 AM77 °FPassing clouds.5 mph94%29.86 "Hg6 mi
12:30 AM79 °FPassing clouds.2 mph89%29.86 "Hg6 mi
12:00 AM79 °FPassing clouds.3 mph89%29.86 "Hg6 mi
11:30 PM
Sep 30
79 °FPassing clouds.5 mph89%29.86 "Hg6 mi
11:00 PM79 °FPartly cloudy.5 mph89%29.89 "Hg6 mi
10:30 PM79 °FPartly cloudy.6 mph89%29.86 "Hg6 mi
10:00 PM79 °FPassing clouds.8 mph89%29.89 "Hg6 mi
9:30 PM79 °FPassing clouds.6 mph89%29.89 "Hg6 mi
9:00 PM81 °FPassing clouds.6 mph84%29.89 "Hg6 mi
8:30 PM81 °FPassing clouds.9 mph84%29.86 "Hg6 mi
8:00 PM82 °FPassing clouds.8 mph79%29.86 "Hg6 mi
7:30 PM82 °FPartly cloudy.7 mph84%29.86 "Hg6 mi
7:00 PM84 °FPassing clouds.5 mph79%29.83 "Hg6 mi
Weather by CustomWeather, © 2014

See weather overviewHow to use our weather pages